Tracking 19224 objects as of 23-Jul-2018
HD Live streaming from Space Station
objects crossing your sky now

ASTRA 1G

Track ASTRA 1G now!
ASTRA 1G is classified as:


NORAD ID: 25071
Int'l Code: 1997-076A
Perigee: 35,752.0 km
Apogee: 35,757.6 km
Inclination: 3.1 °
Period: 1,434.1 minutes
Semi major axis: 42125 km
RCS: 1.138 m2 (large)
Launch date: December 2, 1997
Source: SOCIETE EUROPEENNE DES SATELLITES (SES)
Launch site: TYURATAM MISSILE AND SPACE COMPLEX (TTMTR)

Direct-to-home tv; multimedia; 32 Ku-band transponders; Europe
aabbcc
Your satellite tracking list
Your tracking list is empty




NASA's NSSDC Master Catalog

Two Line Element Set (TLE):
1 25071U 97076A   18203.51921991 +.00000063 +00000-0 +00000-0 0  9994
2 25071 003.1426 076.8335 0000657 337.8368 124.8381 01.00410888075617
Source of the keplerian elements: AFSPC